Tracking 35051 objects as of 17-Aug-2026
HD Live streaming from Space Station
objects crossing your sky now

COSMOS 1220 DEB


COSMOS 1220 DEB is no longer on orbit


NORAD ID: 13347
Int'l Code: 1980-089AQ
Launch date: November 4, 1980
Source: Commonwealth of Independent States (former USSR) (CIS)
Launch site: TYURATAM MISSILE AND SPACE COMPLEX (TTMTR)
Decay date: 1982-12-22

Note: This is SATELLITE DEBRIS
Your satellite tracking list
Your tracking list is empty




NASA's NSSDC Master Catalog

Two Line Element Set (TLE):
1 13347U 80089 AQ 82287.58088413  .00149650 +00000-0 +04239-2 0  9992
2 13347 064.9657 346.3203 0196489 310.7004 047.7266 14.79784775016839
Source of the keplerian elements: AFSPC